TimeEST,TemperatureF,Dew PointF,Humidity,Sea Level PressureIn,VisibilityMPH,Wind Direction,Wind SpeedMPH,Gust SpeedMPH,PrecipitationIn,Events,Conditions,WindDirDegrees,DateUTC
12:00 AM,55.4,42.3,61,29.91,-9999.0,South,5.8,-,N/A,,Unknown,180,2013-11-17 05:00:00
1:00 AM,56,43,52,29.89,,South,8.1,,,,,190,2013-11-17 06:00:00
1:00 AM,56.5,43.2,61,29.89,-9999.0,South,8.1,-,N/A,,Unknown,190,2013-11-17 06:00:00
2:00 AM,57.2,43.7,61,29.89,-9999.0,SSW,11.5,18.4,N/A,,Unknown,200,2013-11-17 07:00:00
3:00 AM,56.5,45.3,66,29.86,-9999.0,South,10.4,-,N/A,,Unknown,180,2013-11-17 08:00:00
7:00 AM,55,50,76,29.80,,SSW,9.2,,,,,200,2013-11-17 12:00:00
12:00 PM,61.2,52.2,72,29.72,-9999.0,SSW,15.0,24.2,N/A,,Unknown,210,2013-11-17 17:00:00
1:00 PM,63,53,61,29.68,,SSW,15.0,,,,,210,2013-11-17 18:00:00
1:00 PM,63.0,52.9,70,29.68,-9999.0,SSW,15.0,23.0,N/A,,Unknown,210,2013-11-17 18:00:00
2:00 PM,63.9,52.9,67,29.65,-9999.0,SSW,15.0,21.9,N/A,,Unknown,200,2013-11-17 19:00:00
3:00 PM,62.1,52.0,70,29.61,-9999.0,SSW,11.5,18.4,N/A,,Unknown,210,2013-11-17 20:00:00
4:00 PM,61.3,51.8,71,29.57,-9999.0,SSW,11.5,19.6,N/A,,Unknown,200,2013-11-17 21:00:00
5:00 PM,61.7,52.7,72,29.54,-9999.0,SSW,10.4,-,N/A,,Unknown,200,2013-11-17 22:00:00
6:00 PM,62.4,53.2,72,29.49,-9999.0,SSW,11.5,18.4,N/A,,Unknown,200,2013-11-17 23:00:00
7:00 PM,62,53,66,29.41,,South,10.4,,,,,190,2013-11-18 00:00:00
7:00 PM,62.4,53.4,72,29.41,-9999.0,South,10.4,18.4,N/A,,Unknown,190,2013-11-18 00:00:00
8:00 PM,63.0,53.2,71,-9999,-9999.0,SSW,13.8,23.0,N/A,,Unknown,200,2013-11-18 01:00:00
9:00 PM,60.4,55.0,82,29.31,-9999.0,SSW,18.4,26.5,0.04,,Unknown,210,2013-11-18 02:00:00
10:00 PM,57.6,52.9,84,-9999,-9999.0,SW,17.3,25.3,0.16,,Unknown,230,2013-11-18 03:00:00
11:00 PM,57.4,47.5,70,29.27,-9999.0,SW,18.4,27.6,N/A,,Unknown,220,2013-11-18 04:00:00